Back to catalog

STARLINK-2234

AliveCommunicationsVLEO
NORAD 48580·PAYLOAD·🇺🇸 United States

Launched May 15, 2021 from Cape Canaveral Space Force Station

Loading…

Next Passes (next 24 hours)

TLE

FreshSource: CelesTrak SupGP

Epoch: Sep 14, 2026, 21:04 UTC

1 48580C 21041AD  26257.87826389  .00002662  00000+0  85587-4 0  2575
2 48580  53.1586 300.5739 0001275  80.3420 145.9412 15.31701808    15

Track STARLINK-2234 in real time with AllMySat

Download on the App Store